| time (UTC) | temp C | wind direction | speed KPH | gust KPH | rain 1hr cm | rain 24hr cm | rain mn cm | humidity % | barometer mb |
| 20260507213042 | 23 | 320 | 16.1 | 32.2 | 0.00 | 0.00 | 0.00 | 31 | 1017.5 |
| 20260507213036 | 22 | 316 | 17.7 | 32.2 | 0.00 | 0.00 | 0.00 | 33 | 1017.6 |
| 20260507210031 | 21 | 313 | 19.3 | 32.2 | 0.00 | 0.00 | 0.00 | 34 | 1017.8 |
| 20260507204533 | 21 | 304 | 16.1 | 30.6 | 0.00 | 0.03 | 0.00 | 36 | 1018.0 |
| 20260507201536 | 20 | 319 | 16.1 | 29.0 | 0.00 | 0.03 | 0.00 | 38 | 1018.3 |
| 20260507200033 | 20 | 315 | 17.7 | 32.2 | 0.00 | 0.03 | 0.00 | 39 | 1018.4 |
| 20260507194531 | 19 | 323 | 17.7 | 29.0 | 0.00 | 0.03 | 0.00 | 41 | 1018.5 |
| 20260507193037 | 18 | 315 | 17.7 | 32.2 | 0.00 | 0.03 | 0.00 | 43 | 1018.6 |
| 20260507190034 | 18 | 312 | 20.9 | 38.6 | 0.00 | 0.03 | 0.00 | 46 | 1018.8 |
| 20260507184541 | 18 | 312 | 20.9 | 38.6 | 0.00 | 0.03 | 0.00 | 47 | 1019.0 |
| 20260507184534 | 17 | 315 | 19.3 | 32.2 | 0.00 | 0.03 | 0.00 | 48 | 1019.4 |
| 20260507181532 | 17 | 312 | 17.7 | 30.6 | 0.00 | 0.03 | 0.00 | 48 | 1019.6 |
| 20260507180034 | 17 | 316 | 14.5 | 25.7 | 0.00 | 0.03 | 0.00 | 50 | 1019.7 |
| 20260507173107 | 17 | 312 | 16.1 | 29.0 | 0.00 | 0.03 | 0.00 | 52 | 1020.1 |
| 20260507171605 | 17 | 318 | 14.5 | 25.7 | 0.00 | 0.03 | 0.00 | 53 | 1020.3 |
| 20260507170033 | 17 | 325 | 12.9 | 22.5 | 0.00 | 0.03 | 0.00 | 54 | 1020.4 |
| 20260507164534 | 16 | 327 | 11.3 | 22.5 | 0.00 | 0.03 | 0.00 | 56 | 1020.4 |
| 20260507163032 | 16 | 312 | 12.9 | 20.9 | 0.00 | 0.03 | 0.00 | 58 | 1020.4 |
| 20260507161539 | 15 | 294 | 11.3 | 22.5 | 0.00 | 0.03 | 0.00 | 61 | 1020.5 |
| 20260507154606 | 15 | 291 | 12.9 | 22.5 | 0.00 | 0.03 | 0.00 | 67 | 1020.8 |
| 20260507151536 | 13 | 318 | 4.8 | 11.3 | 0.00 | 0.03 | 0.00 | 71 | 1020.9 |
| 20260507150144 | 13 | 293 | 6.4 | 11.3 | 0.00 | 0.03 | 0.00 | 72 | 1021.0 |
| 20260507144534 | 12 | 297 | 6.4 | 16.1 | 0.00 | 0.03 | 0.00 | 74 | 1020.9 |
| 20260507143031 | 12 | 314 | 6.4 | 16.1 | 0.00 | 0.03 | 0.00 | 74 | 1020.8 |
| 20260507141535 | 12 | 350 | 3.2 | 8.0 | 0.00 | 0.03 | 0.00 | 76 | 1020.9 |
| 20260507140034 | 11 | 286 | 1.6 | 8.0 | 0.00 | 0.03 | 0.00 | 77 | 1020.7 |
| 20260507134535 | 11 | 113 | 4.8 | 14.5 | 0.00 | 0.03 | 0.00 | 75 | 1020.5 |
| 20260507131536 | 12 | 301 | 16.1 | 27.4 | 0.00 | 0.03 | 0.00 | 73 | 1020.0 |
| 20260507130117 | 12 | 292 | 17.7 | 29.0 | 0.00 | 0.03 | 0.00 | 73 | 1019.9 |
| 20260507124530 | 12 | 294 | 19.3 | 30.6 | 0.00 | 0.03 | 0.00 | 73 | 1019.9 |
| 20260507123108 | 12 | 298 | 20.9 | 32.2 | 0.00 | 0.03 | 0.00 | 73 | 1019.9 |
| 20260507120035 | 12 | 295 | 17.7 | 32.2 | 0.00 | 0.03 | 0.00 | 74 | 1019.8 |
| 20260507114539 | 12 | 298 | 14.5 | 29.0 | 0.00 | 0.03 | 0.00 | 74 | 1019.8 |
| 20260507113034 | 12 | 297 | 14.5 | 30.6 | 0.00 | 0.03 | 0.00 | 74 | 1019.7 |
| 20260507111531 | 12 | 300 | 14.5 | 22.5 | 0.00 | 0.03 | 0.00 | 74 | 1019.5 |
| 20260507110036 | 13 | 304 | 11.3 | 22.5 | 0.00 | 0.03 | 0.00 | 73 | 1019.4 |
| 20260507104607 | 13 | 291 | 14.5 | 27.4 | 0.00 | 0.03 | 0.00 | 73 | 1019.1 |
| 20260507103037 | 13 | 290 | 17.7 | 29.0 | 0.00 | 0.03 | 0.00 | 72 | 1019.0 |
| 20260507101536 | 13 | 290 | 19.3 | 32.2 | 0.00 | 0.03 | 0.00 | 71 | 1019.0 |
| 20260507100044 | 13 | 285 | 19.3 | 33.8 | 0.00 | 0.03 | 0.00 | 70 | 1019.1 |
| 20260507094536 | 14 | 281 | 17.7 | 25.7 | 0.00 | 0.03 | 0.00 | 70 | 1019.3 |
| 20260507093038 | 14 | 285 | 16.1 | 29.0 | 0.00 | 0.03 | 0.00 | 70 | 1019.4 |
| 20260507091535 | 14 | 286 | 16.1 | 27.4 | 0.00 | 0.03 | 0.00 | 70 | 1019.6 |
| 20260507083038 | 14 | 340 | 11.3 | 19.3 | 0.00 | 0.03 | 0.00 | 71 | 1019.5 |
| 20260507081536 | 15 | 342 | 9.7 | 17.7 | 0.00 | 0.03 | 0.00 | 71 | 1019.6 |
| 20260507080030 | 15 | 339 | 11.3 | 17.7 | 0.00 | 0.03 | 0.00 | 71 | 1019.6 |
| 20260507074533 | 15 | 323 | 12.9 | 22.5 | 0.00 | 0.03 | 0.00 | 70 | 1019.6 |
| 20260507071537 | 15 | 301 | 16.1 | 27.4 | 0.00 | 0.03 | 0.00 | 70 | 1019.5 |
| 20260507070035 | 15 | 295 | 16.1 | 29.0 | 0.00 | 0.03 | 0.00 | 70 | 1019.5 |
| 20260507064537 | 15 | 307 | 12.9 | 22.5 | 0.00 | 0.03 | 0.03 | 70 | 1019.5 |
| 20260507063142 | 15 | 304 | 12.9 | 22.5 | 0.00 | 0.03 | 0.03 | 69 | 1019.6 |
| 20260507060106 | 16 | 302 | 12.9 | 25.7 | 0.00 | 0.03 | 0.03 | 69 | 1019.8 |
| 20260507054606 | 16 | 295 | 12.9 | 22.5 | 0.00 | 0.03 | 0.03 | 68 | 1019.9 |
| 20260507053036 | 16 | 290 | 12.9 | 27.4 | 0.00 | 0.03 | 0.03 | 66 | 1019.9 |
| 20260507050106 | 16 | 282 | 9.7 | 17.7 | 0.00 | 0.03 | 0.03 | 64 | 1019.9 |
| 20260507044533 | 16 | 265 | 6.4 | 12.9 | 0.00 | 0.03 | 0.03 | 62 | 1019.8 |
| 20260507043143 | 17 | 280 | 8.0 | 14.5 | 0.00 | 0.03 | 0.03 | 58 | 1019.8 |
| 20260507041535 | 18 | 296 | 8.0 | 16.1 | 0.00 | 0.03 | 0.03 | 51 | 1019.6 |
| 20260507040045 | 18 | 263 | 9.7 | 22.5 | 0.00 | 0.03 | 0.03 | 50 | 1019.4 |
| 20260507034537 | 19 | 254 | 11.3 | 22.5 | 0.00 | 0.03 | 0.03 | 49 | 1019.3 |
| 20260507031536 | 20 | 269 | 9.7 | 19.3 | 0.00 | 0.03 | 0.03 | 47 | 1019.1 |
| 20260507030031 | 20 | 277 | 11.3 | 19.3 | 0.00 | 0.03 | 0.03 | 47 | 1019.1 |
| 20260507024528 | 19 | 308 | 9.7 | 17.7 | 0.00 | 0.03 | 0.03 | 51 | 1019.1 |
| 20260507023033 | 18 | 333 | 4.8 | 11.3 | 0.00 | 0.03 | 0.03 | 53 | 1019.1 |
| 20260507021535 | 19 | 355 | 6.4 | 12.9 | 0.00 | 0.03 | 0.03 | 51 | 1019.0 |
| 20260507020044 | 19 | 340 | 8.0 | 17.7 | 0.00 | 0.03 | 0.03 | 52 | 1018.9 |
| 20260507013108 | 20 | 336 | 11.3 | 22.5 | 0.00 | 0.03 | 0.03 | 49 | 1018.7 |
| 20260507011642 | 20 | 320 | 12.9 | 24.1 | 0.00 | 0.03 | 0.03 | 48 | 1018.7 |
| 20260507010032 | 20 | 310 | 17.7 | 33.8 | 0.00 | 0.03 | 0.03 | 47 | 1018.7 |
| 20260507004535 | 21 | 298 | 16.1 | 30.6 | 0.00 | 0.03 | 0.03 | 45 | 1018.6 |
| 20260507003037 | 21 | 292 | 17.7 | 40.2 | 0.00 | 0.03 | 0.03 | 45 | 1018.3 |
| 20260507001536 | 21 | 287 | 17.7 | 32.2 | 0.00 | 0.03 | 0.03 | 44 | 1018.2 |
| 20260507000033 | 21 | 288 | 17.7 | 30.6 | 0.00 | 0.03 | 0.03 | 42 | 1018.1 |
| 20260506234536 | 22 | 285 | 20.9 | 38.6 | 0.00 | 0.03 | 0.03 | 40 | 1018.0 |
| 20260506233034 | 23 | 291 | 24.1 | 43.5 | 0.00 | 0.03 | 0.03 | 40 | 1017.8 |
| 20260506230037 | 22 | 288 | 17.7 | 32.2 | 0.00 | 0.03 | 0.03 | 41 | 1017.8 |
| 20260506224607 | 24 | 297 | 17.7 | 37.0 | 0.00 | 0.03 | 0.03 | 40 | 1018.2 |
| 20260506223032 | 23 | 283 | 14.5 | 29.0 | 0.00 | 0.03 | 0.03 | 42 | 1018.5 |
| 20260506220038 | 22 | 293 | 20.9 | 37.0 | 0.00 | 0.03 | 0.03 | 42 | 1018.5 |
| 20260506214543 | 23 | 288 | 25.7 | 38.6 | 0.03 | 0.03 | 0.03 | 42 | 1018.0 |